Location: Most
(50.5330°N, 13.6500°E)
Time: 04:56:03
(UTC+02:00)

ISS - Pass Details

Date: 22 May 2021
Orbit: 417 x 422 km, 51.6° (Epoch: 13 June)

Event Time Altitude Azimuth Distance (km) Brightness Sun altitude
Rises 22:57:06 0° 280° (W) 2,367 0.7 -13.7°
Reaches altitude 10° 22:59:13 10° 282° (WNW) 1,503 -0.4 -13.9°
Maximum altitude 23:02:35 80° 9° (N) 432 -3.7 -14.2°
Enters shadow 23:05:17 15° 97° (E) 1,225 -1.7 -14.4°
